Location: Bu�n Treun
(12.1333°N, 108.3167°E)
Time: 12:04:48
(UTC+00:00)

Delta 128 - Pass Details

Date: 13 July 2020
Orbit: 608 x 1216 km, 28.0° (Epoch: 06 August)

Event Time Altitude Azimuth Distance (km) Brightness Sun altitude
Exits shadow 20:52:56 25° 295° (WNW) 1,786 5.6 -22.1°
Maximum altitude 20:56:50 85° 208° (SSW) 857 4.1 -21.2°
Drops below altitude 10° 21:02:16 10° 120° (ESE) 2,276 6.8 -20.1°
Sets 21:04:31 0° 119° (ESE) 3,121 7.6 -19.6°
